Wind_Speed
26 25 26 25 26 26 26 27 27 27 27 27 27 27 26 27 27 28 28 28 28 29 29 29 28 27 27 27 27 27 27 28 29 28 29 30 30 29 29 29 29 25 23 23 22 20 20 23 31 39 43 43 39 36 37 41 45 46 47 47 47 47 48
25 25 25 25 24 24 24 25 25 25 26 26 26 26 26 26 27 27 27 27 27 28 28 28 27 26 25 25 26 25 26 27 27 27 28 30 31 31 31 32 32 30 29 28 27 25 21 20 26 33 35 39 42 38 38 41 43 45 47 48 47 48 48
24 24 24 24 23 23 23 23 23 23 23 24 24 25 25 25 26 26 26 25 26 26 26 26 26 24 23 23 24 24 24 25 26 26 27 28 29 30 31 32 33 32 32 32 31 29 27 23 22 27 30 33 36 37 36 37 37 39 44 46 46 46 45
23 23 23 22 22 22 21 21 21 21 21 21 22 23 24 24 25 25 24 24 24 24 24 24 24 23 22 22 22 23 23 24 25 25 25 25 26 27 29 30 31 31 31 31 31 31 30 27 24 23 24 27 30 32 33 32 32 33 35 37 38 38 38
22 21 21 22 21 21 21 20 20 20 19 19 20 21 22 23 23 23 23 22 23 23 23 23 22 21 21 21 21 21 22 22 23 24 24 24 24 25 26 27 28 28 28 28 29 29 28 27 26 24 24 24 26 29 32 32 31 30 31 31 31 32 32
21 21 20 21 21 21 21 20 19 19 19 18 19 19 20 21 21 21 21 21 21 22 22 22 22 21 20 20 20 20 21 21 22 22 23 23 23 23 23 24 25 25 25 25 25 26 26 26 26 25 24 24 25 26 28 31 32 30 29 30 30 32 32
22 22 21 21 21 21 21 20 20 19 18 18 17 17 18 18 19 19 20 20 20 21 22 22 22 21 20 19 19 19 19 20 21 21 21 21 21 21 22 22 23 23 23 24 23 23 23 23 24 24 24 24 25 26 26 27 29 30 29 29 30 31 32
22 22 22 21 21 21 21 21 20 19 18 17 17 17 17 17 18 17 18 18 19 20 21 22 22 21 21 20 19 19 19 19 19 20 20 20 20 20 20 21 21 21 21 22 22 21 21 21 22 22 22 23 24 25 26 26 27 28 29 29 31 32 32
21 21 21 21 21 21 21 21 21 20 20 19 18 18 18 18 17 17 16 17 17 18 19 21 22 22 21 21 20 20 19 19 19 19 19 20 20 20 20 20 21 21 21 21 22 21 20 20 20 20 21 21 21 22 23 24 26 27 27 28 29 30 32
19 19 19 20 20 20 20 20 21 21 21 20 20 19 19 19 18 18 17 16 16 17 18 19 21 22 22 22 22 21 21 20 20 20 20 20 20 20 20 20 21 21 22 22 22 22 22 21 20 20 20 20 20 20 20 22 24 25 26 27 27 27 28
18 19 19 19 20 20 20 19 19 20 20 21 21 21 21 20 20 20 19 18 17 17 17 18 19 21 22 22 22 22 22 22 22 21 21 21 21 21 21 21 22 22 23 23 23 23 23 22 22 21 21 21 20 21 21 21 23 24 24 25 27 27 27
21 21 20 19 19 19 19 19 18 18 18 19 20 21 21 21 21 21 21 21 20 19 19 19 19 20 21 22 22 22 22 22 23 23 23 23 22 22 23 23 23 23 23 24 24 24 24 24 23 23 23 23 23 23 23 23 25 26 25 25 26 27 27
24 22 21 20 20 19 18 18 19 18 18 18 19 19 20 20 20 21 21 22 22 22 22 21 22 22 22 23 23 23 23 23 23 23 24 24 24 24 24 24 24 25 25 25 26 26 26 25 25 25 25 25 25 26 26 26 27 28 29 28 28 29 29
27 26 25 25 25 25 23 23 22 21 21 21 21 20 19 19 19 19 20 20 20 21 22 23 24 24 25 26 26 26 26 26 25 25 25 25 26 26 26 26 26 27 27 27 27 27 27 27 27 27 27 27 27 27 28 29 29 30 31 31 31 32 32
28 28 28 28 29 29 29 28 27 25 24 24 24 23 22 21 21 21 21 22 22 22 23 24 25 26 27 28 28 29 29 29 29 29 28 28 28 28 28 28 29 29 29 29 29 29 28 29 29 29 29 29 29 29 29 30 30 31 32 33 33 33 33
30 29 28 28 29 30 31 31 31 29 27 26 25 25 24 24 24 24 24 25 25 25 26 26 27 28 29 29 29 30 30 31 31 31 31 31 31 31 31 31 31 31 32 32 32 32 31 31 31 31 32 32 32 32 31 32 32 32 32 33 33 33 33
34 34 33 32 31 31 32 32 31 31 29 28 28 27 26 25 26 26 26 26 25 25 26 27 28 29 31 31 30 30 31 32 32 32 32 32 33 33 33 34 34 34 34 34 34 34 34 34 35 34 34 35 35 34 33 32 32 32 32 33 33 33 33
36 35 34 33 33 32 32 33 32 32 31 30 30 30 28 28 28 28 28 27 26 26 27 27 28 29 31 32 32 32 31 32 33 33 33 33 33 34 34 34 35 36 36 37 37 37 37 37 37 37 37 36 36 35 34 33 32 31 32 32 32 32 32
38 36 34 33 33 33 33 34 34 34 34 33 32 32 31 31 31 30 30 30 30 30 30 30 30 30 31 32 33 34 34 33 33 33 33 33 33 34 35 36 36 37 37 38 38 39 39 39 38 38 38 38 37 36 35 34 32 31 31 31 32 32 32
41 39 37 37 37 37 36 37 36 35 36 36 35 34 34 35 35 35 35 35 35 35 35 36 36 35 36 35 35 35 36 36 36 36 36 35 34 34 35 36 37 38 39 39 39 39 40 40 39 39 39 39 39 38 36 35 34 33 32 32 32 32 31
43 40 40 40 39 39 39 39 38 38 38 38 37 37 38 38 38 38 38 38 40 40 40 41 41 41 41 40 38 38 39 39 39 39 39 39 39 38 37 37 38 39 41 41 41 41 41 40 40 40 41 41 41 40 39 37 36 35 34 34 33 32 31
41 39 41 42 41 40 39 40 40 40 40 39 39 41 41 41 41 41 40 39 40 41 41 42 43 43 43 43 41 40 41 41 41 41 41 42 43 42 40 39 38 40 42 43 44 44 43 42 42 42 42 43 43 42 41 39 38 36 36 35 33 33 33
43 41 43 44 44 43 42 42 42 41 41 41 42 44 44 44 45 46 44 42 42 42 42 42 43 44 45 45 45 43 42 42 42 42 43 44 46 46 45 44 42 41 43 44 45 46 46 45 44 44 44 45 45 44 42 40 39 37 36 35 34 34 34
48 45 45 46 47 46 46 45 44 43 43 44 45 47 47 47 48 48 48 48 46 44 44 45 45 47 49 49 48 46 45 44 45 45 44 45 46 47 47 47 47 45 45 45 46 47 47 47 46 45 45 46 47 46 44 42 40 39 38 37 36 36 36
50 48 47 48 48 49 48 48 47 47 48 48 48 49 50 51 51 49 50 51 49 46 47 48 47 49 50 50 49 49 46 45 45 45 45 44 44 44 44 45 47 48 47 47 47 48 48 48 47 46 46 46 47 48 46 44 42 41 41 40 39 39 40
53 52 51 51 51 51 51 51 51 52 53 53 53 52 52 53 53 52 52 53 52 49 49 50 49 49 49 49 50 50 48 45 44 44 45 44 44 44 44 44 45 47 47 47 47 47 48 49 49 48 47 47 48 49 49 47 45 44 44 43 43 43 43
57 57 57 57 57 57 56 56 56 56 57 57 57 56 55 55 54 54 54 55 54 52 52 53 52 52 52 53 54 54 52 49 47 46 46 45 45 45 45 44 45 47 48 47 46 46 47 48 49 49 48 48 48 50 51 51 49 48 47 46 47 47 47
61 60 60 60 60 60 60 60 60 60 59 59 58 58 58 57 57 56 55 55 54 52 52 53 51 51 53 55 55 54 53 50 48 46 46 46 45 45 45 45 46 47 48 48 47 47 48 48 48 48 48 49 49 50 51 51 51 50 49 49 49 51 52
60 60 60 60 60 60 60 60 60 60 60 59 58 58 58 59 59 58 57 56 55 53 53 53 51 51 53 54 54 53 52 51 50 49 49 49 48 46 47 47 47 47 47 47 46 47 49 50 50 49 49 49 49 50 51 51 52 52 52 53 53 54 55
59 59 59 59 59 59 59 59 58 58 58 58 58 58 58 58 59 59 58 58 58 56 55 54 52 53 55 55 53 53 53 53 53 52 52 52 50 48 47 47 47 47 47 47 47 47 48 50 51 51 52 51 51 52 52 53 54 55 56 56 55 55 56
57 58 58 58 58 58 57 57 57 57 57 57 58 58 57 57 57 57 57 58 58 57 57 55 55 56 56 53 50 50 51 52 53 54 53 52 51 49 49 49 49 48 47 47 49 49 48 49 50 50 52 53 54 55 56 57 58 58 58 58 58 58 59
55 55 55 55 55 55 55 55 55 55 55 56 56 57 56 56 55 55 55 56 56 56 57 57 57 57 55 52 52 53 54 54 55 56 56 55 54 54 54 53 53 53 50 49 51 52 52 51 51 50 51 52 54 56 58 59 60 61 62 62 62 62 62
52 52 53 53 53 53 53 53 53 53 54 54 54 54 54 54 53 53 53 53 54 56 57 56 56 56 56 56 57 58 58 57 57 58 59 59 58 58 58 56 55 55 53 52 53 55 55 54 53 52 51 51 51 52 54 55 57 59 60 61 62 63 63
52 52 52 52 52 52 52 52 52 52 52 52 51 51 51 51 51 51 51 51 53 55 54 53 53 53 53 55 56 56 57 57 57 57 58 58 58 58 57 56 55 54 53 52 52 54 56 55 54 53 53 52 51 50 51 52 53 55 56 58 60 62 63
53 53 53 53 53 53 52 52 51 51 50 49 49 48 49 49 49 49 49 50 51 51 51 51 51 50 50 52 53 55 55 56 56 56 56 57 57 58 58 58 58 57 55 54 52 53 54 56 56 56 56 56 56 56 57 58 58 58 58 58 59 60 62
54 54 54 54 53 53 52 51 51 50 50 48 47 47 47 48 47 47 48 48 48 49 50 49 48 48 49 50 50 51 52 52 52 53 53 54 55 56 56 57 58 58 58 58 57 55 55 56 58 59 60 61 62 63 63 62 62 62 61 61 60 60 61
53 53 53 53 53 53 52 50 50 49 49 48 47 46 47 46 46 46 45 45 46 47 47 47 46 46 46 45 44 44 45 45 46 47 49 50 50 51 52 53 54 55 56 58 58 58 57 56 57 58 59 59 60 60 60 60 59 59 59 59 59 59 60
Wind_Direction
251 250 249 250 251 253 255 258 260 261 262 262 262 262 262 262 263 263 263 263 263 263 263 264 264 262 261 260 259 258 257 257 256 256 255 255 257 258 259 261 264 266 263 258 251 241 233 224 220 223 227 229 231 232 235 240 242 243 245 245 247 249 250
249 248 249 250 251 253 255 257 259 261 262 263 263 264 263 263 263 262 262 261 261 262 263 264 265 264 261 260 259 258 257 257 256 254 252 252 253 255 257 260 262 263 264 264 263 258 251 234 217 215 221 228 235 238 239 242 245 247 248 247 248 250 253
249 249 249 251 252 254 256 256 258 259 261 264 266 266 265 264 263 262 261 260 259 260 262 264 266 266 263 260 258 258 257 257 256 254 252 250 250 252 254 257 259 261 262 264 266 265 263 256 236 222 217 219 231 242 244 246 251 252 252 250 250 252 255
251 251 252 253 254 255 257 257 258 259 260 263 265 267 266 265 263 262 261 259 258 258 260 262 265 266 265 262 258 257 256 256 257 256 254 251 250 250 251 254 256 257 259 261 264 266 266 264 258 246 234 224 225 234 239 246 253 253 251 250 250 253 255
252 253 254 255 256 257 257 258 258 258 258 260 263 265 266 265 263 262 261 261 260 259 260 261 264 265 265 263 259 256 255 253 254 255 254 253 251 250 250 251 254 256 257 259 261 264 266 265 264 260 253 244 236 231 230 235 241 243 246 247 250 254 257
254 255 256 257 258 259 260 259 258 257 256 257 259 263 264 263 262 261 261 260 260 261 262 262 263 263 263 263 260 257 254 252 251 251 252 252 251 250 250 251 253 255 256 258 260 261 262 262 263 262 258 253 250 244 238 234 234 235 241 247 252 256 259
256 257 259 259 260 261 262 263 262 260 258 257 258 261 263 263 262 261 260 259 259 259 261 262 262 262 260 259 258 256 254 252 251 250 249 249 249 248 248 250 253 254 255 257 259 259 258 257 257 259 259 256 253 252 249 245 242 242 245 249 253 257 259
258 259 261 263 264 265 266 267 268 267 265 263 263 265 266 266 264 262 261 260 259 258 258 259 260 260 259 256 255 253 252 251 250 250 249 248 248 247 247 248 251 253 253 256 258 257 255 254 253 254 257 257 256 256 255 254 253 252 253 253 254 255 256
260 260 263 266 269 270 271 270 270 270 270 269 268 269 269 270 268 266 264 263 262 260 259 257 257 257 256 254 253 251 250 249 249 249 249 249 249 249 248 247 249 251 252 252 255 257 255 252 251 252 253 255 256 257 258 259 258 258 259 259 258 257 257
261 261 263 265 267 269 271 272 271 270 269 268 268 268 268 269 270 269 268 266 265 264 262 261 260 258 257 254 252 250 248 248 248 249 249 249 249 250 250 249 249 250 252 252 253 255 256 254 251 250 251 252 254 256 256 257 259 259 260 262 262 262 261
263 265 267 267 267 267 268 270 272 272 270 268 266 266 266 266 266 267 268 267 265 264 263 263 263 263 262 260 257 253 251 249 247 248 249 249 249 250 250 251 251 252 253 254 255 255 256 257 256 254 252 252 253 255 256 258 260 260 260 262 264 264 265
264 266 268 269 268 265 264 264 265 267 269 268 267 266 265 265 264 264 265 265 264 263 262 261 261 263 264 265 264 262 259 256 253 250 249 249 250 251 251 252 253 253 254 254 256 256 256 257 258 258 257 256 256 256 257 258 261 263 262 262 264 264 265
264 264 264 264 262 260 259 259 258 259 260 262 264 265 266 266 265 265 264 265 265 266 265 264 263 262 262 263 265 265 266 265 263 261 258 256 255 254 254 255 255 255 256 256 256 257 257 257 257 257 258 259 259 259 259 258 260 262 263 263 263 264 265
265 265 265 263 260 259 260 261 261 260 260 260 261 261 263 265 266 267 267 267 268 270 272 272 270 269 267 265 264 263 264 265 265 265 265 265 264 263 262 262 262 262 261 260 259 259 259 260 260 260 260 261 261 262 264 263 263 264 265 264 264 265 266
263 264 265 263 262 261 262 263 263 263 262 261 260 260 261 262 265 268 270 272 273 275 277 279 279 277 275 273 270 268 266 264 264 264 264 265 266 268 268 268 268 268 268 267 266 265 265 265 266 267 267 267 267 267 268 268 267 267 268 268 266 266 267
260 261 260 261 262 261 262 263 263 263 262 261 261 261 260 261 263 266 269 272 274 276 278 280 282 282 282 281 280 277 273 270 268 266 265 265 265 266 267 268 268 269 269 269 270 270 269 269 269 269 270 271 271 271 270 269 269 268 268 268 268 268 268
258 258 256 258 261 263 265 266 265 266 265 264 266 265 263 262 262 263 266 269 272 276 279 279 279 280 282 283 283 282 280 276 274 272 271 270 269 268 268 267 267 267 268 268 268 269 270 270 271 270 270 271 271 272 271 269 268 267 266 266 266 267 267
256 256 256 259 264 266 268 269 270 271 271 269 268 267 265 264 264 264 265 266 270 276 281 282 280 279 280 282 283 283 281 278 276 275 274 274 273 272 271 270 270 269 269 269 268 268 269 269 270 270 270 270 269 268 268 267 265 264 263 263 263 265 266
253 252 253 256 259 263 266 268 271 273 273 270 267 266 265 265 264 263 264 267 270 276 280 282 281 281 280 281 281 280 279 278 275 273 273 272 273 273 273 272 272 271 270 270 270 270 270 269 269 269 269 268 266 264 261 260 260 259 259 260 260 261 262
249 250 252 254 256 259 261 263 266 268 269 268 267 265 265 265 265 265 265 268 272 276 278 280 281 281 281 281 280 277 275 275 275 274 272 271 270 271 271 272 272 271 270 269 269 269 270 270 269 269 268 266 264 261 257 253 252 253 253 255 257 258 259
248 251 255 256 257 259 260 261 262 263 264 267 267 266 265 266 268 268 268 271 274 275 275 276 277 278 278 279 280 278 275 274 274 274 273 272 270 269 269 270 271 271 270 270 268 267 267 267 267 267 267 265 263 260 255 251 248 248 249 250 253 255 256
249 252 255 257 258 259 260 261 261 261 264 267 268 267 266 267 269 269 270 273 275 274 274 274 275 277 278 278 277 277 276 274 273 272 272 272 271 270 269 269 269 270 270 269 268 267 266 266 266 266 265 263 261 257 254 251 249 248 248 248 248 250 253
253 252 255 258 260 261 260 260 260 262 265 268 270 270 269 270 270 270 273 277 276 275 277 276 276 279 281 279 278 277 275 275 274 273 272 272 272 271 270 269 269 270 269 268 267 266 265 265 265 265 263 261 259 255 251 250 250 251 250 249 248 249 253
258 257 258 260 262 262 261 260 258 259 263 267 269 269 270 270 270 271 275 277 277 277 279 279 279 282 282 281 279 277 275 276 276 275 274 274 273 271 270 269 269 269 268 268 267 266 265 264 264 264 263 260 257 253 251 251 252 253 253 253 252 253 256
258 260 260 261 262 262 262 260 258 257 260 265 267 267 267 268 269 270 272 274 275 278 281 281 281 282 281 279 277 276 277 277 277 276 276 274 272 271 270 270 270 268 267 267 267 266 265 263 263 263 262 261 257 253 251 252 253 254 256 257 257 258 259
258 259 259 261 262 262 263 262 261 261 262 265 267 267 267 267 268 268 270 272 274 276 278 279 278 277 278 277 275 275 276 277 276 277 277 275 272 270 270 270 269 268 266 266 267 266 265 263 262 262 262 261 259 255 252 253 255 256 257 259 260 261 261
260 261 261 262 262 263 263 264 264 265 265 267 269 269 268 269 270 270 271 272 273 273 273 273 272 273 274 275 275 274 275 275 275 276 277 276 273 271 270 269 269 268 266 266 267 266 265 264 262 262 261 261 261 258 256 256 258 260 261 262 263 263 264
264 264 264 264 264 264 264 265 265 266 267 268 269 269 269 270 271 273 273 273 273 272 270 270 270 271 272 273 274 275 274 274 274 274 275 276 275 271 268 268 269 268 265 264 266 266 265 264 263 262 262 262 261 261 260 260 261 263 265 266 267 267 266
264 264 265 265 265 265 265 265 266 266 267 268 268 269 270 270 271 273 273 273 273 272 270 270 271 272 273 274 275 275 274 273 273 273 274 275 275 273 270 271 273 271 267 265 265 266 266 265 264 263 262 262 262 262 262 263 264 265 267 268 269 270 268
262 262 263 263 263 264 264 265 265 265 265 266 266 267 268 269 270 271 272 272 273 272 272 273 274 274 275 275 275 275 274 273 274 275 276 275 274 273 271 272 275 275 271 267 266 267 268 267 266 265 265 264 265 264 265 265 266 267 268 270 271 272 271
261 261 262 262 262 262 262 263 263 263 263 263 263 264 265 266 267 268 269 270 271 272 273 274 276 276 276 276 274 274 275 274 275 276 276 274 272 272 271 271 274 275 274 270 269 270 270 269 268 268 267 266 266 267 266 266 266 267 268 269 270 271 272
261 261 262 262 262 262 262 262 261 261 261 260 261 261 262 263 263 264 266 268 269 270 271 273 274 274 274 274 274 276 277 277 276 277 276 274 274 275 275 275 274 274 274 273 272 272 272 272 271 270 268 267 267 267 267 266 266 267 267 268 268 269 269
262 262 262 262 262 262 262 262 261 261 260 260 260 260 260 261 262 262 264 266 268 269 270 271 271 272 272 273 274 276 277 277 276 276 275 275 276 278 278 278 276 275 275 273 273 272 273 273 272 270 269 268 267 267 268 268 268 268 268 268 268 268 267
264 263 263 263 263 263 263 263 262 262 262 261 261 261 261 261 261 262 262 264 266 267 268 269 270 270 270 271 273 275 276 276 276 276 276 276 277 277 278 278 277 277 276 275 273 271 271 270 269 268 267 267 266 267 269 271 272 272 272 271 269 268 268
263 263 263 263 263 263 263 263 263 263 263 263 262 261 261 261 261 262 262 264 265 266 268 270 270 269 269 271 273 275 275 276 276 276 276 276 276 276 276 276 277 277 277 275 273 272 270 268 266 264 264 265 266 269 271 273 274 274 274 273 271 270 269
262 261 261 261 262 262 263 263 263 262 262 262 261 261 260 261 261 262 263 264 265 267 269 270 270 271 272 274 274 273 274 275 275 276 276 277 277 278 278 277 278 278 277 275 274 272 270 269 267 265 265 267 269 270 272 274 274 273 273 272 272 271 270
261 261 261 261 262 262 262 261 260 260 259 259 260 260 260 261 261 262 263 264 263 264 267 269 270 271 272 271 271 273 275 276 277 278 279 280 280 280 280 280 279 278 277 276 275 273 271 270 268 268 267 268 269 270 271 271 271 270 270 270 270 270 270
Height
5756 5756 5756 5756 5756 5756 5757 5757 5757 5757 5758 5758 5758 5759 5759 5760 5760 5760 5759 5759 5759 5758 5758 5757 5758 5760 5760 5760 5761 5761 5761 5761 5761 5762 5763 5763 5764 5765 5766 5766 5766 5766 5767 5767 5768 5768 5769 5770 5771 5771 5772 5773 5775 5777 5780 5781 5782 5784 5785 5786 5789 5790 5791
5753 5753 5753 5753 5754 5754 5754 5754 5755 5755 5755 5755 5755 5756 5756 5757 5757 5757 5757 5756 5756 5756 5755 5755 5755 5756 5757 5757 5758 5758 5758 5758 5758 5759 5760 5760 5761 5762 5762 5763 5763 5764 5765 5764 5765 5765 5766 5767 5768 5769 5770 5770 5771 5773 5775 5776 5777 5779 5780 5782 5784 5786 5787
5750 5750 5750 5751 5751 5751 5752 5752 5752 5752 5752 5753 5753 5753 5753 5754 5754 5754 5754 5754 5754 5753 5753 5752 5752 5753 5754 5754 5755 5755 5755 5755 5755 5756 5756 5757 5758 5759 5759 5760 5760 5761 5762 5762 5762 5763 5763 5764 5765 5766 5767 5768 5769 5770 5771 5772 5774 5776 5776 5778 5779 5781 5782
5747 5747 5747 5748 5748 5748 5749 5749 5750 5750 5750 5750 5751 5751 5751 5751 5751 5751 5751 5751 5751 5751 5750 5750 5750 5750 5751 5751 5752 5752 5752 5752 5752 5752 5753 5754 5755 5756 5757 5757 5758 5759 5759 5759 5760 5760 5761 5762 5762 5763 5764 5765 5766 5767 5768 5769 5771 5772 5773 5774 5776 5777 5777
5744 5745 5745 5745 5745 5746 5746 5746 5747 5747 5748 5748 5748 5748 5748 5748 5748 5748 5748 5748 5748 5748 5748 5748 5748 5748 5748 5748 5749 5749 5750 5750 5750 5750 5750 5751 5752 5753 5754 5755 5756 5756 5757 5757 5758 5758 5759 5759 5760 5760 5761 5762 5763 5764 5765 5767 5768 5769 5770 5771 5772 5772 5773
5742 5742 5742 5742 5743 5743 5743 5744 5744 5745 5745 5746 5746 5746 5746 5746 5746 5746 5746 5746 5746 5745 5745 5745 5745 5745 5745 5746 5746 5747 5747 5747 5748 5748 5748 5749 5750 5751 5752 5752 5753 5754 5754 5755 5756 5756 5756 5757 5758 5758 5759 5760 5761 5761 5762 5764 5765 5765 5766 5767 5768 5768 5768
5739 5740 5740 5740 5740 5740 5741 5741 5742 5743 5743 5743 5743 5744 5744 5744 5744 5744 5743 5743 5743 5743 5743 5743 5743 5743 5743 5743 5743 5744 5744 5745 5746 5746 5747 5747 5748 5748 5749 5750 5751 5751 5752 5753 5753 5754 5754 5755 5756 5756 5757 5758 5759 5759 5760 5761 5762 5762 5763 5764 5765 5765 5765
5737 5737 5737 5738 5738 5738 5739 5739 5740 5740 5741 5741 5742 5742 5742 5742 5742 5742 5741 5741 5741 5741 5741 5740 5740 5740 5740 5741 5741 5741 5742 5742 5743 5744 5744 5745 5746 5746 5747 5748 5748 5749 5750 5750 5751 5751 5752 5753 5754 5754 5755 5756 5756 5757 5757 5758 5759 5760 5761 5762 5762 5762 5762
5734 5734 5735 5735 5735 5736 5736 5737 5737 5738 5739 5739 5740 5740 5740 5740 5739 5739 5739 5739 5739 5739 5739 5738 5738 5738 5738 5738 5738 5739 5739 5740 5740 5741 5742 5742 5743 5744 5745 5745 5746 5747 5747 5748 5749 5749 5750 5751 5752 5752 5753 5753 5754 5754 5755 5755 5756 5757 5758 5758 5759 5760 5760
5731 5731 5732 5733 5733 5734 5734 5735 5735 5735 5736 5736 5737 5737 5737 5737 5737 5737 5737 5736 5736 5736 5736 5736 5736 5736 5736 5736 5736 5736 5737 5737 5738 5738 5739 5740 5740 5741 5742 5743 5743 5744 5745 5746 5746 5747 5748 5749 5750 5751 5751 5752 5752 5752 5753 5753 5753 5754 5754 5755 5755 5757 5757
5728 5729 5730 5730 5731 5731 5732 5732 5733 5733 5733 5734 5734 5734 5735 5735 5735 5734 5734 5734 5734 5734 5734 5734 5734 5734 5734 5734 5734 5734 5735 5735 5736 5736 5736 5737 5737 5738 5739 5740 5741 5742 5742 5743 5744 5745 5745 5746 5747 5748 5749 5750 5750 5750 5751 5751 5751 5751 5752 5752 5752 5753 5754
5725 5726 5727 5728 5728 5728 5728 5729 5729 5730 5730 5730 5731 5731 5732 5732 5732 5732 5732 5732 5732 5732 5732 5732 5732 5732 5732 5732 5732 5732 5733 5733 5734 5734 5734 5735 5735 5735 5736 5737 5738 5738 5739 5740 5741 5742 5743 5744 5745 5745 5746 5747 5748 5748 5749 5749 5748 5748 5749 5749 5749 5750 5751
5722 5723 5724 5725 5725 5725 5725 5725 5726 5726 5726 5727 5727 5728 5728 5729 5729 5729 5729 5729 5729 5729 5730 5730 5730 5730 5730 5730 5730 5730 5730 5731 5731 5731 5732 5732 5733 5733 5733 5734 5734 5735 5736 5737 5738 5738 5739 5740 5742 5743 5744 5744 5745 5745 5746 5746 5746 5746 5746 5746 5746 5747 5747
5719 5720 5721 5721 5722 5722 5722 5722 5723 5723 5724 5724 5724 5725 5725 5726 5726 5726 5726 5726 5727 5727 5727 5727 5727 5728 5728 5727 5728 5728 5728 5728 5728 5729 5729 5729 5730 5730 5731 5731 5731 5732 5732 5733 5734 5735 5736 5737 5738 5739 5740 5741 5742 5742 5742 5743 5743 5743 5742 5743 5743 5743 5743
5715 5716 5716 5717 5717 5718 5718 5718 5719 5720 5721 5721 5721 5722 5723 5723 5723 5723 5723 5724 5724 5724 5724 5724 5724 5724 5724 5724 5725 5725 5725 5725 5725 5726 5726 5726 5727 5727 5727 5728 5728 5729 5729 5729 5730 5731 5732 5733 5734 5734 5735 5736 5737 5738 5739 5739 5739 5740 5739 5739 5739 5739 5739
5711 5711 5712 5712 5713 5713 5713 5714 5715 5716 5717 5717 5718 5719 5719 5720 5720 5721 5721 5720 5721 5721 5721 5721 5721 5721 5721 5721 5721 5721 5721 5721 5722 5722 5722 5723 5723 5724 5724 5724 5725 5725 5726 5726 5726 5727 5728 5729 5730 5730 5731 5731 5732 5733 5734 5735 5735 5736 5736 5735 5735 5735 5735
5707 5707 5707 5708 5708 5709 5709 5710 5711 5711 5712 5713 5714 5715 5716 5717 5717 5717 5717 5717 5717 5718 5718 5718 5718 5718 5717 5717 5718 5718 5718 5718 5718 5718 5719 5719 5719 5720 5720 5720 5721 5722 5722 5722 5723 5723 5724 5725 5725 5726 5727 5727 5728 5728 5729 5730 5730 5731 5731 5731 5730 5730 5730
5703 5703 5704 5704 5704 5705 5705 5706 5707 5707 5708 5709 5709 5710 5711 5712 5713 5713 5713 5713 5714 5714 5714 5714 5714 5714 5714 5713 5714 5714 5714 5714 5715 5715 5715 5715 5715 5715 5715 5716 5716 5717 5717 5718 5718 5719 5719 5720 5721 5721 5722 5722 5723 5724 5724 5724 5725 5726 5726 5726 5726 5726 5726
5699 5699 5700 5701 5701 5701 5702 5702 5702 5703 5703 5704 5705 5705 5706 5707 5708 5708 5708 5709 5709 5709 5710 5710 5710 5710 5709 5709 5709 5710 5710 5710 5710 5711 5711 5711 5711 5711 5711 5712 5712 5712 5712 5712 5713 5713 5714 5714 5715 5716 5716 5717 5718 5719 5719 5719 5720 5720 5721 5721 5721 5721 5721
5694 5694 5695 5696 5696 5697 5697 5697 5698 5698 5698 5699 5700 5701 5701 5702 5703 5703 5704 5704 5705 5705 5705 5705 5705 5705 5705 5705 5705 5705 5705 5705 5705 5706 5706 5706 5706 5706 5707 5707 5707 5707 5707 5707 5708 5708 5708 5709 5709 5710 5710 5711 5712 5713 5714 5714 5715 5715 5715 5716 5716 5716 5716
5689 5689 5690 5690 5691 5692 5692 5693 5693 5694 5694 5694 5695 5696 5696 5697 5698 5698 5699 5699 5699 5699 5700 5700 5700 5700 5699 5699 5700 5700 5700 5700 5700 5701 5700 5700 5701 5701 5701 5701 5702 5702 5702 5702 5703 5703 5703 5703 5704 5704 5704 5705 5705 5706 5707 5708 5709 5709 5710 5711 5711 5711 5711
5683 5684 5684 5685 5686 5687 5688 5688 5689 5689 5690 5690 5690 5690 5691 5692 5692 5692 5694 5694 5694 5693 5694 5694 5694 5694 5694 5694 5694 5694 5695 5695 5696 5696 5695 5695 5695 5695 5695 5695 5695 5696 5696 5696 5697 5697 5698 5698 5699 5699 5699 5699 5699 5700 5700 5701 5702 5703 5704 5705 5706 5706 5706
5678 5678 5679 5680 5681 5682 5683 5684 5684 5685 5685 5685 5685 5685 5686 5686 5687 5687 5688 5689 5689 5688 5688 5689 5689 5688 5688 5688 5688 5689 5690 5690 5690 5690 5690 5690 5690 5690 5690 5689 5690 5689 5689 5690 5690 5691 5691 5692 5693 5693 5693 5693 5693 5694 5695 5695 5696 5697 5698 5699 5700 5701 5701
5672 5673 5674 5675 5676 5677 5678 5679 5680 5680 5681 5681 5681 5681 5681 5681 5681 5682 5682 5682 5683 5683 5683 5683 5683 5683 5683 5682 5683 5683 5684 5684 5684 5684 5684 5684 5684 5683 5683 5683 5683 5683 5683 5683 5683 5684 5685 5686 5686 5687 5687 5687 5687 5687 5688 5689 5690 5690 5691 5693 5694 5695 5696
5666 5667 5669 5669 5670 5671 5672 5673 5674 5675 5675 5676 5676 5676 5676 5676 5676 5677 5677 5676 5677 5677 5677 5677 5677 5677 5676 5676 5676 5676 5677 5678 5678 5678 5679 5679 5678 5677 5677 5677 5676 5676 5676 5676 5677 5677 5678 5679 5680 5681 5681 5681 5681 5682 5682 5683 5683 5684 5684 5686 5687 5688 5689
5660 5662 5663 5663 5664 5665 5666 5666 5667 5668 5669 5670 5670 5671 5671 5670 5670 5671 5671 5670 5670 5672 5671 5671 5671 5670 5670 5670 5670 5670 5671 5673 5673 5672 5673 5673 5672 5671 5671 5670 5670 5669 5670 5670 5670 5670 5671 5672 5673 5674 5675 5675 5675 5676 5676 5676 5677 5677 5678 5679 5680 5681 5682
5653 5655 5656 5657 5658 5659 5659 5660 5660 5661 5662 5663 5664 5664 5664 5664 5664 5664 5665 5664 5664 5666 5665 5664 5664 5664 5664 5664 5664 5664 5666 5667 5667 5667 5666 5666 5666 5665 5665 5664 5664 5663 5663 5664 5664 5664 5664 5664 5665 5667 5668 5668 5669 5669 5670 5670 5670 5671 5671 5672 5673 5674 5674
5645 5647 5648 5649 5651 5652 5652 5653 5653 5654 5655 5656 5657 5657 5658 5657 5657 5657 5657 5657 5657 5659 5658 5657 5657 5658 5658 5657 5658 5659 5659 5660 5660 5660 5660 5659 5659 5659 5659 5658 5657 5657 5657 5658 5658 5658 5658 5658 5659 5660 5661 5661 5662 5663 5663 5664 5664 5664 5664 5664 5665 5666 5666
5638 5639 5640 5641 5643 5644 5644 5645 5646 5646 5648 5649 5649 5650 5650 5650 5650 5649 5650 5649 5649 5650 5650 5650 5651 5652 5651 5652 5652 5653 5653 5653 5653 5653 5652 5652 5652 5652 5652 5652 5651 5651 5651 5651 5651 5651 5651 5651 5652 5653 5653 5654 5655 5656 5657 5657 5657 5657 5656 5656 5657 5658 5658
5631 5632 5633 5634 5635 5636 5637 5637 5638 5639 5640 5641 5642 5643 5643 5643 5642 5642 5642 5642 5641 5641 5642 5643 5644 5644 5644 5645 5646 5646 5646 5645 5645 5645 5645 5645 5645 5646 5645 5645 5644 5644 5644 5645 5645 5645 5644 5644 5644 5645 5646 5647 5648 5649 5649 5649 5649 5649 5649 5649 5649 5649 5649
5623 5624 5625 5626 5627 5628 5629 5630 5631 5632 5633 5634 5634 5635 5636 5636 5636 5635 5635 5635 5635 5635 5635 5636 5637 5636 5637 5638 5638 5639 5639 5638 5638 5638 5638 5638 5638 5638 5638 5638 5638 5637 5638 5638 5638 5637 5637 5637 5637 5638 5638 5639 5640 5640 5641 5640 5640 5641 5641 5642 5642 5641 5640
5615 5617 5618 5618 5619 5621 5621 5622 5623 5624 5625 5626 5627 5627 5628 5629 5628 5628 5628 5628 5629 5629 5629 5630 5630 5630 5630 5631 5631 5631 5631 5631 5631 5631 5630 5630 5631 5630 5630 5630 5630 5630 5631 5631 5631 5630 5629 5629 5630 5630 5630 5631 5632 5632 5631 5631 5632 5633 5633 5633 5633 5633 5632
5608 5609 5610 5611 5612 5613 5613 5614 5615 5616 5617 5618 5619 5619 5620 5621 5621 5621 5622 5621 5621 5621 5623 5624 5624 5624 5625 5625 5624 5624 5624 5624 5624 5623 5623 5623 5623 5622 5622 5622 5621 5622 5623 5624 5623 5621 5621 5621 5621 5621 5622 5622 5623 5623 5623 5623 5624 5624 5624 5624 5624 5623 5623
5600 5601 5602 5603 5603 5605 5605 5606 5607 5608 5609 5610 5611 5612 5613 5613 5613 5614 5615 5615 5614 5615 5616 5617 5618 5618 5618 5618 5617 5617 5617 5616 5616 5616 5615 5615 5615 5614 5614 5614 5613 5613 5615 5615 5614 5613 5613 5613 5613 5613 5613 5613 5614 5614 5614 5615 5615 5615 5615 5615 5614 5614 5614
5591 5592 5593 5594 5595 5596 5597 5599 5600 5601 5602 5603 5604 5605 5605 5605 5606 5607 5608 5608 5608 5609 5610 5611 5611 5611 5611 5611 5611 5610 5609 5609 5609 5608 5608 5608 5607 5606 5606 5606 5605 5605 5606 5605 5605 5605 5605 5604 5604 5605 5605 5604 5605 5605 5605 5605 5606 5606 5606 5605 5605 5605 5605
5582 5584 5585 5585 5586 5588 5589 5591 5593 5593 5594 5595 5596 5597 5597 5598 5600 5600 5601 5602 5602 5602 5603 5604 5604 5604 5604 5604 5603 5603 5602 5602 5601 5601 5600 5600 5599 5598 5598 5597 5596 5596 5596 5595 5595 5596 5596 5595 5595 5596 5596 5595 5595 5595 5595 5596 5596 5596 5595 5595 5595 5595 5595
5574 5575 5576 5577 5579 5580 5582 5584 5585 5585 5586 5588 5589 5589 5590 5592 5594 5594 5594 5595 5595 5596 5597 5597 5597 5597 5596 5596 5596 5596 5596 5595 5595 5594 5593 5592 5591 5590 5589 5588 5587 5587 5586 5585 5585 5585 5586 5586 5586 5586 5586 5586 5586 5586 5586 5586 5586 5586 5586 5586 5585 5585 5585